www.pogodaiklimat.ru

Погода и климат >> Архив погоды >> Алжир >> Бордж Моктар


ПОГОДА в Бордж Моктар

  • Прогноз погоды в Бордж Моктар
  • Монитор погоды в Бордж Моктар

АРХИВ ПОГОДЫ в Бордж Моктар

Время (UTC), дата Ветер
(напр.,м/с)
 
Видим.   Явления Облачность Т
(С)
Тd
(С)
f
(%)
Тe
(С)
Тes
(С)
Комфортность P
(гПа)
Po
(гПа)
Тmin
(С)
Tmax
(С)
R
(мм)
R24
(мм)
S
(см)
06 15.09 ЮВ 3 5000 м 6/3 1500 м
[Sc Ac trans Ci sp]
+30.8 +4.7 19 +29 +29 жарко 1009.6 965.3 +30.1
09 15.09 ЮВ 6 6000 м 6/3 1500 м
[Sc Ac trans Ci sp]
+37.0 +4.2 13 +34 +36 очень
жарко
1011.9 968.4
12 15.09 В 7 7000 м 5/0
[Ac trans Ci sp]
+40.8 +3.7 10 +38 +42 очень
жарко
1009.4 966.5
15 15.09 СВ 6 10 км ясно +41.9 +37 +41 очень
жарко
1006.8 964.2
18 15.09 В 6 10 км ясно +39.9 +3.1 10 +36 +36 очень
жарко
1007.2 964.3 +42.6
06 16.09 В 2 8000 м ясно +29.0 +3.8 20 +27 +27 жарко 1008.4 963.9 +28.8
09 16.09 Ю 7 5000 м ясно +36.3 +1.5 11 +33 +36 жарко 1009.4 965.9
12 16.09 Ю 5 6000 м ясно +40.3 +2.2 10 +37 +48 очень
жарко
1008.1 965.2
15 16.09 В 2 10 км ясно +41.8 +37 +46 очень
жарко
1005.6 963.0
18 16.09 СВ 3 10 км ясно +39.7 +35 +35 очень
жарко
1005.9 963.0 +42.3
06 17.09 Ю 5 10 км ясно +30.0 +1.3 16 +27 +27 жарко 1007.9 963.6 +29.6
09 17.09 Ю 6 10 км ясно +35.2 +2.8 13 +32 +36 жарко 1009.6 965.9
15 17.09 ЮВ 5 10 км 3/3 1380 м
[Cu hum]
+40.2 +2.4 10 +37 +40 очень
жарко
1005.7 962.9
18 17.09 В 3 10 км ясно +38.7 +34 +34 очень
жарко
1005.9 962.9 +41.0
06 18.09 Ю 3 10 км 3/0
[Ac trans]
+28.4 +1.1 17 +26 +26 жарко 1009.2 964.6 +28.3
09 18.09 Ю 5 10 км ясно +34.9 +1.1 12 +32 +37 жарко 1010.6 966.8
12 18.09 Ю 3 10 км ясно +38.6 +33 +51 опасность
солнечного
удара
1010.0 966.8
15 18.09 Ю 3 10 км 3/0
[Ci sp]
+39.7 +35 +42 очень
жарко
1007.9 964.9
18 18.09 штиль 0 10 км 3/0
[Ci sp]
+38.6 +33 +33 жарко 1008.0 964.9 +41.1
06 19.09 ЮВ 4 10 км ясно +30.0 -5.8 9 +26 +26 жарко 1009.1 964.7 +28.4
09 19.09 ЮВ 7 10 км ясно +36.0 +31 +33 жарко 1010.6 967.0
12 19.09 В 7 10 км ясно +39.7 +35 +40 очень
жарко
1009.5 966.4
15 19.09 В 3 10 км ясно +40.4 +35 +43 очень
жарко
1007.8 964.9
18 19.09 В 5 10 км ясно +38.8 +34 +34 очень
жарко
1008.4 965.3 +41.9
06 20.09 Ю 2 10 км ясно +25.5 -4.7 13 +23 +23 комфорт 1010.5 965.4 +25.2
09 20.09 ЮВ 6 10 км ясно +35.5 +30 +34 жарко 1012.3 968.6
12 20.09 В 6 10 км ясно +40.2 +35 +44 очень
жарко
1010.3 967.3
15 20.09 В 3 10 км ясно +40.6 +36 +44 очень
жарко
1008.2 965.3
18 20.09 В 3 10 км ясно +39.0 +34 +34 очень
жарко
1009.1 966.0 +41.5
06 21.09 ЮВ 2 10 км ясно +25.4 -5.4 13 +23 +23 комфорт 1010.9 965.8 +24.7
09 21.09 ЮВ 5 10 км ясно +35.9 +31 +36 жарко 1012.3 968.6
12 21.09 ЮВ 3 10 км ясно +39.8 +35 +52 опасность
солнечного
удара
1010.9 967.8
15 21.09 ЮВ 2 10 км ясно +40.4 +35 +45 очень
жарко
1008.7 965.8
18 21.09 В 6 10 км ясно +38.5 +33 +33 жарко 1009.0 965.8 +41.5

 

Местоположение метеостанции Бордж Моктар (Алжир): широта 21.33 долгота 0.95 высота над уровнем моря 399 м.

В архиве по умолчанию представлена погода в Бордж Моктар за последнюю неделю. Архивные данные за месяц целиком и за предыдущие месяцы, начиная с января 2011 года, Вы можете получить, выбрав интересующий диапазон дат из раскрывающегося списка и нажав кнопку "Ввод!".


*Определитесь, кто Вы:
робот инопланетянин человек

Внимание! Время в таблицах - всемирное. Для получения местного времени необходимо прибавить поправку, которая равна 1 ч.

Смотрите также архив погоды в соседних городах и на ближайших метеорологических станциях:

Погода в Ин-Зиза (Алжир) (288 км)
Погода в Abankor (Алжир) (414 км)
Погода в Анебарака (Алжир) (440 км)
Погода в Таманрассете (Алжир) (490 км)
Погода в Араке (Алжир) (523 км)
Погода в Assekrem (Алжир) (528 км)
Погода в Moulay Lachen (Алжир) (537 км)
Погода в Ин-Геззаме (Алжир) (537 км)
Погода в Ин-Геззам аэропорту (Алжир) (537 км)
Погода в Mertouek (Алжир) (572 км)

Пояснения к столбцам:

Ветер - указаны скорость ветра в м/с - средняя за 10 мин, порывы в срок и между сроками (в фигурных скобках) и направление, откуда дует ветер: С - северный, СВ - северо-восточный, В - восточный, ЮВ - юго-восточный, Ю - южный, ЮЗ - юго-западный, З - западный, СЗ - северо-западный.
Видимость - горизонтальная дальность видимости в метрах или километрах. При видимости от 1 до 10 км при отсутствии осадков обычно наблюдается дымка, при ухудшении видимости до 1 км и менее - туман. В сухую погоду видимость может ухудшаться дымом, пылью или мглою.
Явления - указаны атмосферные явления, наблюдавшиеся в срок или в последний час перед сроком; фигурными скобками обозначены явления, наблюдавшиеся между сроками (за 1-3 часа до срока); квадратными скобками обозначены град или гололедные отложения с указанием их диаметра в мм.
Облачность - указаны через наклонную черту общая и нижняя облачность в баллах и высота нижней границы облаков в метрах; квадратными скобками обозначены формы облаков: Ci - перистые, Cs - перисто-слоистые, Cc - перисто-кучевые, Ac - высококучевые, As - высокослоистые, Sc - слоисто-кучевые, Ns - слоисто-дождевые, Cu - кучевые, Cb - кучево-дождевые. Подробнее классификацию облаков см. в Атласе облаков (PDF).
T - Температура воздуха - температура, измеренная на высоте 2 м над землей.
Td - Температура точки росы - температура, при понижении до которой содержащийся в воздухе водяной пар достигнет насыщения.
f - Относительная влажность воздуха - влажноcть воздуха, измеренная на высоте 2 м над землей.
Te - Эффективная температура - температура, которую ощущает одетый по сезону человек в тени. Характеристика душности погоды. При расчете учитывается влияние влажности воздуха и скорости ветра на теплоощущения человека.
Tes - Эффективная температура на солнце - температура, которую ощущает человек, с поправкой на солнечный нагрев. Характеристика знойности погоды. Зависит от высоты солнца над горизонтом, облачности и скорости ветра. Ночью, в пасмурную погоду, а также при ветре 12 м/с и более поправка равна нулю.
P - Атмосферное давление - приведенное к уровню моря атмосферное давление.
Po - Атмосферное давление - измеренное на уровне метеостанции атмосферное давление.
Tmin - Минимальная температура - минимум температуры воздуха на высоте 2 м над землей.
Tmax - Максимальная температура - максимум температуры воздуха на высоте 2 м над землей.
R - Количество осадков - Количество выпавших осадков за период времени, мм. При наведении курсора мыши на число - период времени, за который выпало указанное количество осадков.
R24 - Количество осадков - Количество выпавших осадков за 24 часа, мм.
S - Снежный покров - Высота снежного покрова, см. При наведении курсора мыши на число - состояние снежного покрова и степень покрытия местности в баллах.